FW0639 Weather Reports


time (UTC)temp
C
wind
direction
speed
KPH
gust
KPH
rain 1hr
cm
rain 24hr
cm
rain mn
cm
humidity
%
barometer
mb
20260505033516 5 240 0.0 0.0 0.00 0.00 0.00 50 1015.2
20260505032525 5 240 0.0 0.0 0.00 0.00 0.00 50 1015.1
20260505031454 6 222 0.0 0.0 0.00 0.00 0.00 47 1014.9
20260505024217 7 26 0.0 8.0 0.00 0.00 0.00 42 1014.4
20260505022058 7 16 0.0 6.4 0.00 0.00 0.00 42 1014.1
20260505015927 8 0 1.6 6.4 0.00 0.00 0.00 41 1013.9
20260505014949 8 354 0.0 6.4 0.00 0.00 0.00 41 1013.9
20260505013923 8 353 1.6 14.5 0.00 0.00 0.00 41 1013.8
20260505012904 8 355 1.6 14.5 0.00 0.00 0.00 42 1013.7
20260505011917 8 353 1.6 16.1 0.00 0.00 0.00 42 1013.8
20260505010843 8 353 3.2 16.1 0.00 0.00 0.00 43 1013.8
20260505005901 8 355 4.8 12.9 0.00 0.00 0.00 42 1013.7
20260505004829 8 347 1.6 8.0 0.00 0.00 0.00 43 1013.6
20260505003824 9 345 3.2 12.9 0.00 0.00 0.00 43 1013.6
20260505002812 9 353 3.2 16.1 0.00 0.00 0.00 43 1013.5
20260505001743 9 328 4.8 19.3 0.00 0.00 0.00 43 1013.4
20260505000721 9 353 3.2 27.4 0.00 0.00 0.00 43 1013.1
20260504235730 9 351 3.2 27.4 0.00 0.00 0.00 43 1012.9
20260504233542 10 348 3.2 14.5 0.00 0.00 0.00 45 1012.7
20260504231410 10 349 3.2 22.5 0.00 0.00 0.00 44 1012.4
20260504230356 10 345 4.8 22.5 0.00 0.00 0.00 45 1012.4
20260504225411 10 343 4.8 16.1 0.00 0.00 0.00 45 1012.3
20260504224430 10 347 1.6 9.7 0.00 0.00 0.00 44 1012.1
20260504223403 10 344 3.2 16.1 0.00 0.00 0.00 45 1012.0
20260504222335 10 345 3.2 20.9 0.00 0.00 0.00 44 1012.0
20260504221354 10 343 4.8 20.9 0.00 0.00 0.00 44 1011.9
20260504220408 10 342 4.8 16.1 0.00 0.00 0.00 47 1011.8
20260504214305 10 342 3.2 25.7 0.00 0.00 0.00 49 1011.9
20260504213234 10 339 6.4 17.7 0.00 0.00 0.00 47 1012.0
20260504212257 11 340 4.8 19.3 0.00 0.00 0.00 48 1012.0
20260504210148 10 340 4.8 16.1 0.00 0.00 0.00 48 1012.2
20260504205203 10 338 4.8 20.9 0.00 0.00 0.00 48 1012.1
20260504204140 10 340 4.8 20.9 0.00 0.00 0.00 48 1012.1
20260504203203 10 340 3.2 19.3 0.00 0.00 0.00 48 1012.1
20260504202202 10 340 4.8 19.3 0.00 0.00 0.00 46 1012.2
20260504201214 11 339 4.8 19.3 0.00 0.00 0.00 45 1012.0
20260504200226 10 341 4.8 20.9 0.00 0.00 0.00 46 1012.0
20260504195202 10 338 4.8 20.9 0.00 0.00 0.00 46 1011.9
20260504194219 10 343 4.8 20.9 0.00 0.00 0.00 46 1011.9
20260504193240 10 344 3.2 20.9 0.00 0.00 0.00 48 1012.0
20260504192243 10 342 3.2 20.9 0.00 0.00 0.00 49 1012.1
20260504191302 10 343 3.2 14.5 0.00 0.00 0.00 47 1012.1
20260504190259 10 343 3.2 14.5 0.00 0.00 0.00 51 1012.0
20260504185317 10 342 1.6 12.9 0.00 0.00 0.00 52 1012.1
20260504184301 10 340 3.2 11.3 0.00 0.00 0.00 53 1012.2
20260504183239 10 344 3.2 20.9 0.00 0.00 0.00 52 1012.2
20260504182227 9 343 3.2 20.9 0.00 0.00 0.00 51 1012.4
20260504181154 9 344 3.2 22.5 0.00 0.00 0.00 50 1012.2
20260504180205 10 342 4.8 22.5 0.00 0.00 0.00 53 1012.2
20260504175133 10 341 4.8 22.5 0.00 0.00 0.00 52 1012.2
20260504174105 10 339 4.8 22.5 0.00 0.00 0.00 51 1012.1
20260504173130 10 341 3.2 19.3 0.00 0.00 0.00 53 1012.0
20260504172121 9 342 4.8 16.1 0.00 0.00 0.00 52 1012.0
20260504171128 10 340 3.2 19.3 0.00 0.00 0.00 52 1012.0
20260504170140 10 338 4.8 19.3 0.00 0.00 0.00 50 1012.1
20260504150759 7 210 3.2 9.7 0.00 0.00 0.00 65 1012.3
20260504140628 6 38 4.8 16.1 0.00 0.00 0.00 66 1012.6
20260504130659 6 53 1.6 3.2 0.00 0.00 0.00 71 1012.4
20260504110342 7 39 0.0 6.4 0.00 0.00 0.00 61 1012.0
20260504100416 8 28 0.0 0.0 0.00 0.00 0.00 60 1011.8
20260504050132 7 37 1.6 3.2 0.00 0.00 0.00 59 1005.6
20260504045058 8 35 0.0 0.0 0.00 0.00 0.00 59 1005.5
20260504044035 8 32 0.0 1.6 0.00 0.00 0.00 58 1005.5
20260504043010 8 29 0.0 3.2 0.00 0.00 0.00 60 1005.5
20260504041954 8 26 0.0 0.0 0.00 0.00 0.00 57 1005.5
20260504041014 8 22 1.6 3.2 0.00 0.00 0.00 57 1005.3
20260504034902 10 10 1.6 3.2 0.00 0.00 0.00 54 1005.4